Location: Banska Bystrica
(0.0000°N, 19.1500°E)
Time: 17:25:46
(UTC+02:00)

Cosmos 2154 Rocket - Pass Details

Date: 19 February 2019
Orbit: 965 x 997 km, 82.9° (Epoch: 13 October)

Event Time Altitude Azimuth Distance (km) Brightness Sun altitude
Rises 19:31:29 0° 4° (N) 3,699 6.9 -23.1°
Reaches altitude 10° 19:34:02 10° 8° (N) 2,753 6.2 -23.7°
Maximum altitude 19:40:15 60° 87° (E) 1,127 3.9 -25.2°
Drops below altitude 10° 19:46:29 10° 166° (SSE) 2,759 6.3 -26.8°
Sets 19:49:03 0° 169° (S) 3,707 7.1 -27.4°
